EW7883 Weather Reports


time (UTC)temp
C
wind
direction
speed
KPH
gust
KPH
rain 1hr
cm
rain 24hr
cm
rain mn
cm
humidity
%
barometer
mb
20260506144521 11 331 4.8 14.5 0.00 0.03 0.00 50 1009.3
20260506143018 11 273 3.2 14.5 0.00 0.03 0.00 50 1009.1
20260506141516 10 277 8.0 14.5 0.00 0.03 0.00 50 1009.2
20260506140016 10 319 4.8 12.9 0.00 0.03 0.00 52 1008.9
20260506134526 10 12 1.6 12.9 0.00 0.03 0.00 56 1009.0
20260506133011 9 263 8.0 17.7 0.00 0.03 0.00 56 1008.8
20260506131510 9 281 4.8 8.0 0.00 0.03 0.00 55 1008.7
20260506130007 8 319 3.2 11.3 0.00 0.03 0.00 55 1008.4
20260506124510 8 324 3.2 6.4 0.00 0.03 0.00 53 1008.4
20260506123003 8 329 3.2 8.0 0.00 0.03 0.00 53 1008.1
20260506121500 7 360 0.0 4.8 0.00 0.03 0.00 53 1007.9
20260506114558 7 360 0.0 3.2 0.00 0.03 0.00 54 1007.9
20260506113055 7 360 0.0 6.4 0.00 0.03 0.00 55 1007.5
20260506111610 7 360 1.6 4.8 0.00 0.03 0.00 56 1007.4
20260506110054 7 360 0.0 4.8 0.00 0.03 0.00 56 1007.1
20260506104549 7 360 0.0 4.8 0.00 0.03 0.00 56 1007.0
20260506103046 8 360 0.0 4.8 0.00 0.03 0.00 56 1006.5
20260506101542 8 360 0.0 3.2 0.00 0.03 0.00 56 1006.5
20260506100041 8 360 0.0 3.2 0.00 0.03 0.00 57 1006.3
20260506094540 8 360 0.0 3.2 0.00 0.03 0.00 57 1006.4
20260506093038 8 360 0.0 3.2 0.00 0.03 0.00 57 1006.0
20260506091540 8 360 0.0 4.8 0.00 0.03 0.00 57 1006.3
20260506090036 8 360 0.0 3.2 0.00 0.03 0.00 57 1005.9
20260506084536 8 360 0.0 4.8 0.00 0.03 0.00 57 1005.9
20260506083034 8 360 0.0 4.8 0.00 0.03 0.00 57 1006.0
20260506081542 8 360 0.0 0.0 0.00 0.03 0.00 57 1005.8
20260506073033 8 360 0.0 4.8 0.00 0.03 0.00 57 1005.9
20260506071533 8 360 0.0 4.8 0.00 0.03 0.00 57 1005.6
20260506061531 8 360 0.0 4.8 0.00 0.03 0.00 57 1006.1
20260506044517 9 276 0.0 1.6 0.00 0.33 0.00 56 1006.1
20260506043013 10 276 0.0 3.2 0.00 0.33 0.00 55 1006.2
20260506041507 10 276 0.0 3.2 0.00 0.33 0.00 54 1006.1
20260506040005 10 276 0.0 0.0 0.00 0.33 0.00 53 1005.7
20260506034604 10 360 0.0 0.0 0.00 0.33 0.33 53 1005.8
20260506033056 10 360 0.0 0.0 0.00 0.33 0.33 52 1005.8
20260506031552 10 360 0.0 1.6 0.00 0.33 0.33 52 1006.1
20260506030047 10 360 0.0 4.8 0.00 0.33 0.33 50 1006.0
20260506024551 10 360 1.6 4.8 0.00 0.33 0.33 50 1006.0
20260506023039 10 360 1.6 3.2 0.00 0.33 0.33 50 1006.0
20260506021535 10 360 1.6 4.8 0.00 0.33 0.33 49 1005.9
20260506020031 10 360 1.6 6.4 0.00 0.33 0.33 48 1005.9
20260506014527 11 360 1.6 6.4 0.00 0.33 0.33 48 1005.6
20260506013022 11 360 0.0 4.8 0.00 0.33 0.33 49 1005.4
20260506011537 11 360 0.0 6.4 0.00 0.33 0.33 50 1005.3
20260506010012 11 360 1.6 6.4 0.00 0.33 0.33 50 1005.2
20260506004508 11 360 1.6 4.8 0.00 0.36 0.33 52 1005.3
20260506003003 11 360 1.6 4.8 0.00 0.36 0.33 51 1005.4
20260506001604 11 360 0.0 4.8 0.00 0.36 0.33 52 1005.2
20260506000120 11 360 1.6 4.8 0.00 0.36 0.33 50 1005.1
20260505234558 11 360 1.6 4.8 0.00 0.76 0.33 50 1004.7
20260505233100 11 360 1.6 4.8 0.00 0.76 0.33 50 1004.5
20260505231612 12 360 3.2 6.4 0.00 0.76 0.33 51 1004.5
20260505230107 12 360 3.2 6.4 0.00 0.76 0.33 51 1004.5
20260505224558 12 360 1.6 8.0 0.00 0.76 0.33 52 1004.6
20260505223054 12 360 6.4 12.9 0.00 0.76 0.33 52 1004.6
20260505221600 12 360 6.4 19.3 0.00 0.76 0.33 54 1004.6
20260505220057 12 360 3.2 12.9 0.00 0.76 0.33 53 1004.5
20260505214553 12 360 3.2 9.7 0.00 0.76 0.33 53 1004.6
20260505213054 12 360 3.2 12.9 0.00 0.76 0.33 51 1004.6
20260505211551 12 360 4.8 12.9 0.00 0.76 0.33 52 1004.4
20260505210051 12 360 3.2 8.0 0.00 0.76 0.33 48 1004.5
20260505204553 12 360 1.6 12.9 0.00 0.76 0.33 44 1004.6
20260505203059 12 360 3.2 8.0 0.00 0.76 0.33 45 1004.8
20260505201550 12 360 4.8 9.7 0.00 0.76 0.33 45 1004.8
20260505200050 12 360 1.6 9.7 0.00 0.76 0.33 43 1004.8
20260505194604 12 360 4.8 8.0 0.00 0.76 0.33 41 1004.8
20260505193044 12 360 3.2 9.7 0.00 0.76 0.33 40 1004.9
20260505191552 11 360 4.8 9.7 0.00 0.76 0.33 42 1004.9
20260505190039 11 360 4.8 12.9 0.00 0.76 0.33 40 1005.1
20260505184535 11 360 1.6 12.9 0.00 0.76 0.33 33 1005.2
20260505183026 12 360 3.2 20.9 0.00 0.76 0.33 37 1004.9
20260505181523 12 360 3.2 14.5 0.00 0.76 0.33 28 1004.7
20260505180018 11 360 4.8 16.1 0.03 0.76 0.33 32 1004.5
20260505174514 11 360 3.2 19.3 0.03 0.76 0.33 27 1004.4
20260505173010 11 360 6.4 14.5 0.03 0.76 0.33 19 1004.1
20260505171505 11 360 4.8 12.9 0.03 0.76 0.33 13 1004.2
20260505164604 11 360 8.0 19.3 0.00 0.71 0.30 26 1004.3
20260505163052 11 360 8.0 16.1 0.00 0.71 0.30 36 1004.5
20260505161551 12 360 8.0 17.7 0.00 0.71 0.30 49 1004.6
20260505153033 13 286 4.8 12.9 0.00 0.71 0.30 55 1003.3
20260505151532 14 280 1.6 16.1 0.00 0.71 0.30 54 1003.3